TimeCDT,TemperatureF,Dew PointF,Humidity,Sea Level PressureIn,VisibilityMPH,Wind Direction,Wind SpeedMPH,Gust SpeedMPH,PrecipitationIn,Events,Conditions,WindDirDegrees,DateUTC
12:04 AM,21.2,17.6,86,30.21,10.0,West,8.1,-,N/A,,Clear,280,2013-03-26 05:04:00
12:24 AM,23.0,17.6,80,30.21,10.0,West,6.9,-,N/A,,Scattered Clouds,280,2013-03-26 05:24:00
12:44 AM,21.2,17.6,86,30.21,10.0,West,9.2,-,N/A,,Scattered Clouds,270,2013-03-26 05:44:00
1:04 AM,21.2,17.6,86,30.21,10.0,West,9.2,-,N/A,,Mostly Cloudy,280,2013-03-26 06:04:00
1:24 AM,21.2,17.6,86,30.21,10.0,West,9.2,-,N/A,,Scattered Clouds,280,2013-03-26 06:24:00
1:43 AM,21.2,17.6,86,30.22,10.0,West,9.2,-,N/A,,Mostly Cloudy,280,2013-03-26 06:43:00
2:04 AM,23.0,19.4,86,30.21,10.0,West,9.2,-,N/A,,Overcast,280,2013-03-26 07:04:00
2:24 AM,23.0,19.4,86,30.21,10.0,West,9.2,-,N/A,,Overcast,280,2013-03-26 07:24:00
2:43 AM,23.0,19.4,86,30.21,10.0,WNW,10.4,-,N/A,,Overcast,290,2013-03-26 07:43:00
3:04 AM,23.0,19.4,86,30.21,10.0,West,9.2,-,N/A,,Overcast,280,2013-03-26 08:04:00
3:24 AM,23.0,19.4,86,30.21,10.0,West,10.4,-,N/A,,Overcast,280,2013-03-26 08:24:00
3:43 AM,23.0,19.4,86,30.21,10.0,West,9.2,-,N/A,,Overcast,280,2013-03-26 08:43:00
4:04 AM,23.0,19.4,86,30.22,10.0,West,8.1,-,N/A,,Overcast,280,2013-03-26 09:04:00
4:24 AM,21.2,19.4,93,30.22,10.0,West,8.1,-,N/A,,Overcast,280,2013-03-26 09:24:00
4:43 AM,23.0,19.4,86,30.22,10.0,WNW,6.9,-,N/A,,Overcast,290,2013-03-26 09:43:00
5:04 AM,21.2,19.4,93,30.22,10.0,West,6.9,-,N/A,,Overcast,280,2013-03-26 10:04:00
5:24 AM,21.2,17.6,86,30.23,10.0,West,8.1,-,N/A,,Overcast,280,2013-03-26 10:24:00
5:43 AM,21.2,17.6,86,30.23,10.0,West,8.1,-,N/A,,Overcast,280,2013-03-26 10:43:00
6:04 AM,21.2,17.6,86,30.23,10.0,West,9.2,-,N/A,,Overcast,280,2013-03-26 11:04:00
6:24 AM,21.2,17.6,86,30.24,10.0,West,6.9,-,N/A,,Overcast,280,2013-03-26 11:24:00
7:04 AM,21.2,17.6,86,30.25,10.0,West,6.9,-,N/A,,Overcast,270,2013-03-26 12:04:00
7:24 AM,21.2,17.6,86,30.25,10.0,West,5.8,-,N/A,,Overcast,270,2013-03-26 12:24:00
7:43 AM,21.2,17.6,86,30.26,10.0,West,4.6,-,N/A,,Overcast,270,2013-03-26 12:43:00
8:04 AM,21.2,17.6,86,30.27,10.0,West,6.9,-,N/A,,Overcast,270,2013-03-26 13:04:00
8:24 AM,21.2,17.6,86,30.27,10.0,West,6.9,-,N/A,,Overcast,270,2013-03-26 13:24:00
8:43 AM,21.2,17.6,86,30.27,10.0,West,9.2,-,N/A,,Overcast,270,2013-03-26 13:43:00
9:04 AM,21.2,17.6,86,30.28,10.0,West,8.1,-,N/A,,Overcast,270,2013-03-26 14:04:00
9:24 AM,23.0,17.6,80,30.28,10.0,West,8.1,-,N/A,,Overcast,270,2013-03-26 14:24:00
9:43 AM,24.8,17.6,74,30.28,10.0,West,8.1,-,N/A,,Overcast,280,2013-03-26 14:43:00
10:04 AM,24.8,19.4,80,30.28,10.0,West,6.9,-,N/A,,Overcast,270,2013-03-26 15:04:00
10:24 AM,26.6,19.4,74,30.29,10.0,West,6.9,-,N/A,,Overcast,270,2013-03-26 15:24:00
10:44 AM,26.6,19.4,74,30.29,10.0,West,5.8,-,N/A,,Overcast,280,2013-03-26 15:44:00
11:04 AM,28.4,19.4,69,30.28,10.0,West,4.6,-,N/A,,Overcast,260,2013-03-26 16:04:00
11:24 AM,28.4,19.4,69,30.28,10.0,WSW,5.8,-,N/A,,Overcast,250,2013-03-26 16:24:00
11:44 AM,30.2,19.4,64,30.28,10.0,West,6.9,-,N/A,,Scattered Clouds,280,2013-03-26 16:44:00
12:04 PM,30.2,19.4,64,30.28,10.0,West,5.8,-,N/A,,Clear,260,2013-03-26 17:04:00
12:24 PM,30.2,19.4,64,30.28,10.0,West,5.8,-,N/A,,Clear,260,2013-03-26 17:24:00
12:44 PM,30.2,19.4,64,30.28,10.0,WSW,5.8,-,N/A,,Clear,240,2013-03-26 17:44:00
1:04 PM,32.0,19.4,60,30.28,10.0,West,4.6,-,N/A,,Clear,260,2013-03-26 18:04:00
1:24 PM,32.0,19.4,60,30.28,10.0,WSW,5.8,-,N/A,,Clear,250,2013-03-26 18:24:00
1:44 PM,33.8,19.4,56,30.28,10.0,West,6.9,-,N/A,,Clear,270,2013-03-26 18:44:00
2:04 PM,33.8,21.2,60,30.27,10.0,West,9.2,-,N/A,,Clear,280,2013-03-26 19:04:00
2:24 PM,33.8,21.2,60,30.27,10.0,West,8.1,-,N/A,,Clear,270,2013-03-26 19:24:00
2:44 PM,33.8,21.2,60,30.27,10.0,West,8.1,-,N/A,,Clear,260,2013-03-26 19:44:00
3:04 PM,33.8,21.2,60,30.27,10.0,West,10.4,-,N/A,,Clear,270,2013-03-26 20:04:00
3:24 PM,33.8,21.2,60,30.27,10.0,West,6.9,-,N/A,,Clear,270,2013-03-26 20:24:00
3:44 PM,35.6,21.2,56,30.26,10.0,West,10.4,-,N/A,,Mostly Cloudy,280,2013-03-26 20:44:00
4:04 PM,35.6,21.2,56,30.26,10.0,West,10.4,-,N/A,,Overcast,280,2013-03-26 21:04:00
4:24 PM,33.8,21.2,60,30.26,10.0,West,9.2,-,N/A,,Overcast,270,2013-03-26 21:24:00
4:44 PM,33.8,19.4,56,30.26,10.0,West,9.2,-,N/A,,Overcast,280,2013-03-26 21:44:00
5:04 PM,35.6,19.4,52,30.26,10.0,West,6.9,-,N/A,,Overcast,280,2013-03-26 22:04:00
5:23 PM,35.6,19.4,52,30.25,10.0,West,9.2,-,N/A,,Mostly Cloudy,270,2013-03-26 22:23:00
5:44 PM,35.6,19.4,52,30.26,10.0,West,8.1,-,N/A,,Mostly Cloudy,280,2013-03-26 22:44:00
6:04 PM,35.6,19.4,52,30.26,10.0,West,8.1,-,N/A,,Overcast,270,2013-03-26 23:04:00
6:23 PM,33.8,19.4,56,30.26,10.0,West,8.1,-,N/A,,Overcast,270,2013-03-26 23:23:00
6:44 PM,33.8,19.4,56,30.26,10.0,West,6.9,-,N/A,,Overcast,270,2013-03-26 23:44:00
7:04 PM,33.8,21.2,60,30.26,10.0,West,4.6,-,N/A,,Overcast,260,2013-03-27 00:04:00
7:23 PM,30.2,21.2,69,30.26,10.0,WSW,3.5,-,N/A,,Mostly Cloudy,250,2013-03-27 00:23:00
7:44 PM,30.2,21.2,69,30.27,10.0,West,4.6,-,N/A,,Scattered Clouds,260,2013-03-27 00:44:00
8:04 PM,28.4,21.2,74,30.27,10.0,WSW,3.5,-,N/A,,Clear,250,2013-03-27 01:04:00
8:23 PM,28.4,19.4,69,30.27,10.0,Calm,Calm,-,N/A,,Clear,0,2013-03-27 01:23:00
8:44 PM,26.6,19.4,74,30.27,10.0,WSW,3.5,-,N/A,,Clear,240,2013-03-27 01:44:00
9:04 PM,24.8,19.4,80,30.28,10.0,West,4.6,-,N/A,,Clear,270,2013-03-27 02:04:00
9:23 PM,26.6,19.4,74,30.28,10.0,WSW,3.5,-,N/A,,Clear,240,2013-03-27 02:23:00
9:44 PM,24.8,19.4,80,30.28,10.0,NW,4.6,-,N/A,,Clear,310,2013-03-27 02:44:00
10:04 PM,24.8,19.4,80,30.28,10.0,West,3.5,-,N/A,,Clear,260,2013-03-27 03:04:00
10:23 PM,24.8,19.4,80,30.28,10.0,West,3.5,-,N/A,,Clear,270,2013-03-27 03:23:00
10:44 PM,23.0,17.6,80,30.28,10.0,Calm,Calm,-,N/A,,Clear,0,2013-03-27 03:44:00
11:04 PM,21.2,17.6,86,30.29,10.0,West,3.5,-,N/A,,Clear,270,2013-03-27 04:04:00
11:23 PM,24.8,19.4,80,30.29,10.0,West,3.5,-,N/A,,Clear,270,2013-03-27 04:23:00
11:44 PM,21.2,17.6,86,30.29,10.0,Calm,Calm,-,N/A,,Clear,0,2013-03-27 04:44:00